Lexington Weather

Lexington, Massachusetts, USA

44°F
11/27/2020 4:19am 
  • Lexington Conditions: Mist, Overcast
  • Temperature: 43.5°F / 6.4°CWarmer 2.9°F than last hour.
  • Dew Point: 42.8°FIncreased 2.9°Fsince last hour.
  • Relative Humidity: 97
  • Wind: Calm, 10-min avg: Calm, gust: None
  • Barometer: 29.97 in Steady
  • Visibility: ¾ mile
  • Rain Today: 0.00 in
  •   
Southeast Middlesex County - Special Weather Statement
 - SEE ALL NEARBY ALERTS -

Regional Weather Roundup
for Boston / Norton, MA

        
000
ASUS41 KBOX 250004
RWRBOX

REGIONAL WEATHER ROUNDUP
NATIONAL WEATHER SERVICE BOSTON/NORTON MA
700 PM EST TUE NOV 24 2020

NOTE:  "FAIR" INDICATES FEW OR NO CLOUDS BELOW 12,000 FEET WITH NO 
SIGNIFICANT WEATHER AND/OR OBSTRUCTIONS TO VISIBILITY.

MAZALL-250100-
EASTERN MASSACHUSETTS
  
CITY           SKY/WX    TMP DP  RH WIND       PRES   REMARKS
BOSTON         PTCLDY    36  16  44 N8        30.41R WCI  30          
6HR MIN TEMP:  36; 6HR MAX TEMP:  44;                                

BEVERLY        CLEAR     33  15  47 N6        30.41R WCI  28          
LAWRENCE       CLEAR     33  14  45 NW9       30.42R WCI  25          
BEDFORD        CLEAR     32  16  51 N3        30.40R                  
BLUE HILL        N/A     33  14  45 N9        30.36R WCI  25          
NORWOOD        CLEAR     34  19  54 CALM      30.40R                  
MARSHFIELD     CLEAR     32  21  64 CALM      30.41R                  
PLYMOUTH       CLEAR     27  22  81 E3        30.40R                  
TAUNTON        CLEAR     29  22  75 CALM      30.40R                  
NEW BEDFORD    CLEAR     31  24  75 CALM      30.40R                  
$$

MAZALL-250100-
CAPE COD AND THE ISLANDS
  
CITY           SKY/WX    TMP DP  RH WIND       PRES   REMARKS
FALMOUTH       CLEAR     28  23  80 CALM      30.41R                  
HYANNIS        CLEAR     36  22  56 NW3       30.39R                  
CHATHAM        CLEAR     37  22  54 N3        30.41R                  
PROVINCETOWN   CLEAR     40  23  50 N9G17     30.42R                  
NANTUCKET      CLEAR     40  22  48 N6        30.40R                  
MARTHAS VNYRD  CLEAR     31  21  66 CALM      30.41R                  
$$
 
MAZALL-250100-
CENTRAL AND WESTERN MASSACHUSETTS
  
CITY           SKY/WX    TMP DP  RH WIND       PRES   REMARKS
WORCESTER      CLEAR     35  15  44 N3        30.36R                  
6HR MIN TEMP:  31; 6HR MAX TEMP:  41;                                

FITCHBURG      CLEAR     28  19  69 NW3       30.41R                  
ORANGE         CLEAR     27  22  81 NW3       30.39R                  
SPRINGFIELD    PTCLDY    28  20  74 CALM      30.39R                  
WESTFIELD      CLEAR     29  21  72 CALM      30.39R                  
NORTH ADAMS    CLEAR     30  21  69 CALM      30.38R                  
PITTSFIELD     CLEAR     31  20  63 W5        30.35R WCI  26          
$$
 
RIZALL-250100-
RHODE ISLAND
  
CITY           SKY/WX    TMP DP  RH WIND       PRES   REMARKS
PROVIDENCE     CLEAR     38  19  46 W3        30.41R                  
6HR MIN TEMP:  38; 6HR MAX TEMP:  46;                                

NEWPORT        CLEAR     38  21  50 NW6       30.40R                  
BLOCK ISLAND   CLEAR     40  20  44 N5        30.41R                  
SMITHFIELD     CLEAR     33  18  53 NW6       30.39R WCI  28          
WESTERLY       CLEAR     32  22  66 CALM      30.40R                  
$$
 
CTZALL-250100-
CONNECTICUT
  
CITY           SKY/WX    TMP DP  RH WIND       PRES   REMARKS
BRADLEY INTL   CLEAR     36  19  50 W3        30.40R                  
6HR MIN TEMP:  35; 6HR MAX TEMP:  47;                                

HARTFORD       CLEAR     40  19  43 NW5       30.41R                  
BRIDGEPORT     CLEAR     41  27  57 N3        30.41R                  
DANBURY        CLEAR     31  25  78 S3        30.40R                  
GROTON         CLEAR     34  26  72 N3        30.41R                  
NEW HAVEN      CLEAR     38  25  59 N3        30.41R                  
CHESTER        FAIR      34  19  55 NW3       30.40R                  
MERIDEN        CLEAR     33  25  72 CALM      30.41R                  
WILLIMANTIC    CLEAR     29  23  78 CALM      30.41R                  
OXFORD         CLEAR     36  21  54 N8        30.39R WCI  30          
$$

MEZ002-015-021-024-NHZ003-005-008-011-012-014-VTZ005-008-250100-
NORTHERN NEW ENGLAND
  
CITY           SKY/WX    TMP DP  RH WIND       PRES   REMARKS
PORTLAND ME    CLEAR     28  13  53 N9        30.43R WCI  19          
6HR MIN TEMP:  27; 6HR MAX TEMP:  38;                                

BANGOR ME      CLEAR     25  11  55 NW8       30.41R WCI  16          
CONCORD NH     CLEAR     28  11  48 N3        30.42R                  
MANCHESTER NH  PTCLDY    33  12  41 N10       30.40R WCI  25          
NASHUA NH      CLEAR     31  17  56 N5        30.42R WCI  26          
PORTSMOUTH NH  PTCLDY    30   9  41 NW13      30.39R WCI  20          
JAFFREY NH     CLEAR     27  18  69 CALM      30.37R                  
KEENE NH       CLEAR     27  21  78 CALM      30.41R                  
BURLINGTON VT  PTCLDY    24  12  60 NE5       30.45S WCI  18          
MT. WASHINGTON NOT AVBL                                               
$$

NYZ052-076-250100-
EASTERN NEW YORK
  
CITY           SKY/WX    TMP DP  RH WIND       PRES   REMARKS
ALBANY         PTCLDY    30  22  72 CALM      30.41R                  
6HR MIN TEMP:  30; 6HR MAX TEMP:  40;                                

NEW YORK CITY  PTCLDY    48  24  39 N3        30.39R                  
6HR MIN TEMP:  48; 6HR MAX TEMP:  50;                                

$$
 
ANZALL-250100-
MARINE OBSERVATIONS
  
STATION/POSITION TIME  TEMP    WIND        PRES    VSBY  WAVE
                       AIR SEA DIR/SP/G                  HT/PER
                 (UTC) (F)     (DEG/KT/KT) (MB)    (MI)  (FT/S)
BOSTON BUOY      2340          340/ 14/ 19 1029.5R
BUZZARDS BAY     2300          330/ 12/ 14 1029.9R
NANTUCKET SOUND  2340          340/ 10/ 14   N/A
MASS BAY-STELLWA NOT AVBL
ISLE OF SHOALS   2300   36     330/ 18/ 20 1028.5R
S OF BLOCK IS    2326      57                N/A           3/ 4
$$

......................KEY.........................
  SKY/WX - SKY CONDITION/PRESENT WEATHER
  TMP    - TEMPERATURE IN FAHRENHEIT
  DWPT   - DEWPOINT IN FAHRENHEIT
  RH     - RELATIVE HUMIDITY IN PERCENT
  WIND   - DIRECTION AND SPEED IN MPH
  PRES   - MEAN SEA LEVEL PRESSURE IN INCHES OF HG
  WCI    - WIND CHILL INDEX
  VSB    - VISIBILITY IN MILES
  HX     - HEAT INDEX
  TC     - TEMPERATURE IN CELSIUS
  VRB    - VARIABLE WIND DIRECTION
  N/A    - NOT AVAILABLE
  
      

Other recent Regional Weather Roundups

Fri Nov 27, 1:04am

Fri Nov 27, 12:04am

Thu Nov 26, 11:04pm

Thu Nov 26, 10:04pm

Thu Nov 26, 9:04pm

Thu Nov 26, 8:04pm

Thu Nov 26, 7:04pm

Thu Nov 26, 6:04pm

Thu Nov 26, 5:04pm

Thu Nov 26, 4:04pm

Thu Nov 26, 2:04pm

Thu Nov 26, 1:04pm

Thu Nov 26, 12:04pm

Thu Nov 26, 11:04am

Thu Nov 26, 10:04am

Thu Nov 26, 9:04am

Thu Nov 26, 8:04am

Thu Nov 26, 7:04am

Thu Nov 26, 6:04am

Thu Nov 26, 5:04am

Thu Nov 26, 4:04am

Thu Nov 26, 3:04am

Thu Nov 26, 2:04am

Thu Nov 26, 1:04am

Thu Nov 26, 12:04am

Wed Nov 25, 11:04pm

Wed Nov 25, 10:04pm

Wed Nov 25, 9:04pm

Wed Nov 25, 8:04pm

Wed Nov 25, 7:04pm

Wed Nov 25, 6:04pm

Wed Nov 25, 5:04pm

Wed Nov 25, 4:04pm

Wed Nov 25, 3:05pm

Wed Nov 25, 2:04pm

Wed Nov 25, 1:04pm

Wed Nov 25, 12:05pm

Wed Nov 25, 11:04am

Wed Nov 25, 10:04am

Wed Nov 25, 9:04am

Wed Nov 25, 8:04am

Wed Nov 25, 7:04am

Wed Nov 25, 6:04am

Wed Nov 25, 5:04am

Wed Nov 25, 4:04am

Wed Nov 25, 3:04am

Wed Nov 25, 2:04am

Wed Nov 25, 1:04am

Wed Nov 25, 12:04am

Tue Nov 24, 11:04pm

Tue Nov 24, 10:04pm

Tue Nov 24, 9:04pm

Tue Nov 24, 8:04pm

Tue Nov 24, 6:04pm

Tue Nov 24, 5:04pm

Tue Nov 24, 4:05pm

Tue Nov 24, 3:05pm

Tue Nov 24, 2:05pm

Tue Nov 24, 1:05pm

Tue Nov 24, 12:04pm

Tue Nov 24, 11:04am

Tue Nov 24, 10:04am

Tue Nov 24, 9:04am

Tue Nov 24, 8:04am

Tue Nov 24, 7:04am

Tue Nov 24, 6:04am

Tue Nov 24, 5:04am

Tue Nov 24, 4:05am

Tue Nov 24, 3:04am

Tue Nov 24, 2:04am

Tue Nov 24, 1:04am

Tue Nov 24, 12:05am

Mon Nov 23, 11:04pm

Mon Nov 23, 10:04pm

Mon Nov 23, 9:04pm

Mon Nov 23, 8:04pm

Mon Nov 23, 7:04pm

Mon Nov 23, 6:04pm

Mon Nov 23, 5:04pm

Mon Nov 23, 4:04pm

Mon Nov 23, 3:04pm

Mon Nov 23, 2:04pm

Mon Nov 23, 1:04pm

Mon Nov 23, 12:04pm

Mon Nov 23, 11:04am

Mon Nov 23, 10:04am

Mon Nov 23, 9:04am

Mon Nov 23, 8:05am

Mon Nov 23, 7:04am

Mon Nov 23, 6:04am

Mon Nov 23, 5:04am

Mon Nov 23, 4:04am

Mon Nov 23, 3:04am

Mon Nov 23, 2:04am

Mon Nov 23, 1:04am

Mon Nov 23, 12:05am

Sun Nov 22, 11:04pm

Sun Nov 22, 10:04pm

Sun Nov 22, 9:04pm

Sun Nov 22, 8:05pm

Sun Nov 22, 7:04pm

Sun Nov 22, 6:04pm

Sun Nov 22, 5:04pm

Sun Nov 22, 4:04pm

Sun Nov 22, 3:04pm

Sun Nov 22, 2:04pm

Sun Nov 22, 1:05pm

Sun Nov 22, 12:04pm

Sun Nov 22, 11:04am

Sun Nov 22, 10:05am

Sun Nov 22, 9:04am

Sun Nov 22, 8:04am

Sun Nov 22, 7:04am

Sun Nov 22, 6:04am

Sun Nov 22, 5:04am

Sun Nov 22, 4:04am

Sun Nov 22, 3:04am

Sun Nov 22, 2:04am

Sun Nov 22, 1:04am

Sun Nov 22, 12:04am

Sat Nov 21, 11:04pm

Sat Nov 21, 10:04pm

Sat Nov 21, 9:04pm

Sat Nov 21, 8:05pm

Sat Nov 21, 7:04pm

Sat Nov 21, 6:04pm

Sat Nov 21, 5:04pm

Sat Nov 21, 4:05pm

Sat Nov 21, 3:04pm

Sat Nov 21, 2:04pm

Sat Nov 21, 1:05pm

Sat Nov 21, 12:04pm

Sat Nov 21, 11:04am

Sat Nov 21, 10:04am

Sat Nov 21, 9:04am

Sat Nov 21, 8:04am

Sat Nov 21, 7:04am

Sat Nov 21, 6:04am

Sat Nov 21, 5:04am

Sat Nov 21, 4:04am

Sat Nov 21, 3:04am

Sat Nov 21, 2:04am

Sat Nov 21, 1:04am

Sat Nov 21, 12:04am

Fri Nov 20, 11:04pm

Fri Nov 20, 10:04pm

Fri Nov 20, 9:04pm

Fri Nov 20, 8:04pm

Fri Nov 20, 7:04pm

Fri Nov 20, 6:04pm

Fri Nov 20, 5:04pm

Fri Nov 20, 4:05pm

Fri Nov 20, 3:05pm

Fri Nov 20, 2:04pm

Fri Nov 20, 1:04pm

Fri Nov 20, 12:04pm

Fri Nov 20, 11:04am

Fri Nov 20, 10:04am

Fri Nov 20, 9:04am

Fri Nov 20, 8:04am

Fri Nov 20, 7:04am

Fri Nov 20, 6:04am

Fri Nov 20, 5:04am

Fri Nov 20, 4:04am

Meta data:

ID: b3e1febb-7e74-4373-90fb-71bea93fe95f
Link: https://api.weather.gov/products/b3e1febb-7e74-4373-90fb-71bea93fe95f